ONEWEB-0427 (50499 NORAD) Tracking and Keplerian Element Data
This shows tracking and keplerian element data for the satellite.
Feedback or suggestion? Click here.
Element | Value |
Catalog | 50499 |
Name | ONEWEB-0427 |
Epoch Orbit | 2296 |
Epoch Day | 140.91667824 |
Epoch Year | 2022 |
RAAN | 304.9632 |
Inclination | 87.2106 |
Eccentricity | 0.0003663 |
Argument of Perigee | 75.9926 |
Mean Anonmoly | 87.3493 |
Mean Motion | 14.92490291 |
Decay Rate | 0.00037793 |
L1 | 1 50499U 21132AG 22140.91667824 .00037793 00000+0 36661-2 0 9990 |
L2 | 2 50499 87.2106 304.9632 0003663 75.9926 87.3493 14.92490291 22960 |
Live tracking and technical data element details for ONEWEB-0427 (NORAD 50499). ONEWEB-0427 can be tracked NOW for your location showing map with azimuth and elevation plus other details from your city location.
Track the satellite on the map from your city or location and see movement details for azimuth, elevation, latitude, longitude, range, height, and movement on the map or in text.
IsCatalogInMostPopularTable: catalog: 50499, numindb: 31
Update: records affected: 1
GetName: 50499 ONEWEB-0427
Hit Count: updated at: Sun, 22 May 2022 04:03:39 GMT